User: anonymous   Login
Location: Indian Springs
(36.5700°N, 115.6700°W)
Time: 06:07:13
(UTC-07:00)
Language:

Cosmos 2278 Rocket - Orbit

View from above orbital plane
View from above orbital plane
View from above satellite
View from above satellite

Ground track
Ground track

The orbit data is extracted from the following two-line orbital elements,

1 23088U 94023B   16211.62373548  .00000197  00000-0  12731-3 0  9992
2 23088  70.9975 239.0654 0005149 244.1293 115.9298 14.14641055149924
Epoch (UTC): 29 July 2016 14:58:10
Eccentricity: 0.0005149
inclination: 70.9975°
perigee height: 840 km
apogee height: 847 km
right ascension of ascending node: 239.0654°
argument of perigee: 244.1293°
revolutions per day: 14.14641055
mean anomaly at epoch: 115.9298°
orbit number at epoch: 14992

The dashed part of the orbit path shows where the satellite is in the earth's shadow,  

DLR